This is the latest recevied weather packets stored in our database for station/object SR6NWB-11. If no packets are shown the sender has not sent any weather packets the latest 10 day(s).
| Time | Temp. | Humidity | Pressure | Rain* | Wind** | Luminosity | Snow |
|---|---|---|---|---|---|---|---|
| 1777518257 | 1.11° C | 38% | 1031.6 hPa | 0 mm | - | - | - |
| 1777517741 | 1.11° C | 38% | 1031.6 hPa | 0 mm | - | - | - |
| 1777517206 | 1.11° C | 37% | 1031.6 hPa | 0 mm | - | - | - |
| 1777516666 | 1.11° C | 37% | 1031.5 hPa | 0 mm | - | - | - |
| 1777516136 | 1.11° C | 37% | 1031.6 hPa | 0 mm | - | - | - |
| 1777515586 | 0.56° C | 38% | 1031.6 hPa | 0 mm | - | - | - |
| 1777515081 | 0.56° C | 38% | 1031.4 hPa | 0 mm | - | - | - |
| 1777514571 | 0.56° C | 38% | 1031.5 hPa | 0 mm | - | - | - |
| 1777514036 | 0.56° C | 38% | 1031.5 hPa | 0 mm | - | - | - |
| 1777513501 | 0.56° C | 38% | 1031.3 hPa | 0 mm | - | - | - |
| 1777513011 | 0.56° C | 38% | 1031.4 hPa | 0 mm | - | - | - |
| 1777511936 | 0.56° C | 38% | 1031.3 hPa | 0 mm | - | - | - |
| 1777511386 | 1.11° C | 39% | 1031.2 hPa | 0 mm | - | - | - |
| 1777510866 | 1.11° C | 39% | 1031.3 hPa | 0 mm | - | - | - |
| 1777508091 | 1.11° C | 39% | 1031.1 hPa | 0 mm | - | - | - |
| 1777507561 | 1.11° C | 39% | 1031.2 hPa | 0 mm | - | - | - |
| 1777507016 | 1.11° C | 39% | 1031.1 hPa | 0 mm | - | - | - |
| 1777498656 | 1.67° C | 39% | 1030.9 hPa | 0 mm | - | - | - |
| 1777498121 | 1.67° C | 38% | 1030.9 hPa | 0 mm | - | - | - |
| 1777497096 | 1.67° C | 38% | 1030.8 hPa | 0 mm | - | - | - |
| 1777493891 | 1.67° C | 37% | 1030.8 hPa | 0 mm | - | - | - |
| 1777491266 | 1.67° C | 35% | 1030.5 hPa | 0 mm | - | - | - |
| 1777490696 | 2.22° C | 35% | 1030.5 hPa | 0 mm | - | - | - |
| 1777489596 | 2.22° C | 34% | 1030.3 hPa | 0 mm | - | - | - |
| 1777487901 | 2.78° C | 33% | 1030.1 hPa | 0 mm | - | - | - |
* Rain latest hour (hover to see other rain measurements)
** Current wind speed in m/s (hover to see current wind gust speed)